FW6934 Weather Reports


time (UTC)temp
F
wind
direction
speed
knots
gust
knots
rain 1hr
in
rain 24hr
in
rain mn
in
humidity
%
barometer
mb
20260831200550 76 305 3.5 7.0 0.00 0.00 0.00 48 997.0
20260831200030 76 259 0.9 4.3 0.00 0.00 0.00 48 997.2
20260831195530 76 55 0.9 4.3 0.00 0.00 0.00 48 997.3
20260831195038 75 57 0.0 3.5 0.00 0.00 0.00 49 997.2
20260831194506 75 355 0.0 5.2 0.00 0.00 0.00 48 997.3
20260831194012 76 183 1.7 5.2 0.00 0.00 0.00 50 997.4
20260831193518 76 86 1.7 4.3 0.00 0.00 0.00 49 997.3
20260831193054 75 132 0.9 3.5 0.00 0.00 0.00 51 997.3
20260831192600 74 231 1.7 4.3 0.00 0.00 0.00 51 997.3
20260831192005 74 325 1.7 4.3 0.00 0.00 0.00 51 997.4
20260831191541 73 66 0.9 2.6 0.00 0.00 0.00 52 997.6
20260831191032 73 71 0.9 2.6 0.00 0.00 0.00 53 997.7
20260831190541 73 80 0.9 3.5 0.00 0.00 0.00 52 997.7
20260831190109 73 98 1.7 3.5 0.00 0.00 0.00 54 998.0
20260831185519 72 36 1.7 4.3 0.00 0.00 0.00 53 997.8
20260831185027 73 54 2.6 4.3 0.00 0.00 0.00 53 998.0
20260831184558 72 295 2.6 4.3 0.00 0.00 0.00 53 998.0
20260831184102 72 79 0.9 3.5 0.00 0.00 0.00 55 998.0
20260831183516 71 33 1.7 4.3 0.00 0.00 0.00 55 998.0
20260831183030 71 11 2.6 4.3 0.00 0.00 0.00 55 998.0
20260831182536 71 325 1.7 4.3 0.00 0.00 0.00 55 998.1
20260831182042 71 5 0.9 4.3 0.00 0.00 0.00 57 998.1
20260831181508 72 32 1.7 4.3 0.00 0.00 0.00 55 998.2
20260831181022 71 19 1.7 4.3 0.00 0.00 0.00 57 998.2
20260831180527 71 102 0.9 2.6 0.00 0.00 0.00 59 998.4
20260831180042 70 151 0.0 2.6 0.00 0.00 0.00 60 998.5
20260831175550 70 149 0.9 5.2 0.00 0.00 0.00 60 998.5
20260831175056 69 149 1.7 5.2 0.00 0.00 0.00 60 998.6
20260831174532 69 143 1.7 4.3 0.00 0.00 0.00 60 998.6
20260831174041 69 46 0.9 2.6 0.00 0.00 0.00 60 998.6
20260831173542 68 49 0.9 5.2 0.00 0.00 0.00 63 998.6
20260831173022 68 355 1.7 5.2 0.00 0.00 0.00 62 998.7
20260831172528 68 59 1.7 4.3 0.00 0.00 0.00 62 998.7
20260831172032 68 70 0.9 2.6 0.00 0.00 0.00 62 998.8
20260831171507 67 51 0.9 3.5 0.00 0.00 0.00 64 998.9
20260831171016 67 48 0.9 3.5 0.00 0.00 0.00 66 998.9
20260831170522 66 321 0.9 4.3 0.00 0.00 0.00 65 998.8
20260831170050 66 34 2.6 4.3 0.00 0.00 0.00 67 999.0
20260831165556 66 338 0.0 2.6 0.00 0.00 0.00 65 999.1
20260831165001 66 25 0.0 2.6 0.00 0.00 0.00 65 999.2
20260831164546 65 22 0.0 2.6 0.00 0.00 0.00 67 999.1
20260831164048 65 298 0.9 2.6 0.00 0.00 0.00 67 999.2
20260831163550 65 336 0.9 4.3 0.00 0.00 0.00 68 999.2
20260831163024 64 30 0.9 4.3 0.00 0.00 0.00 68 999.3
20260831162533 64 40 0.9 2.6 0.00 0.00 0.00 69 999.3
20260831162037 63 40 0.0 3.5 0.00 0.00 0.00 70 999.3
20260831161602 63 40 1.7 3.5 0.00 0.00 0.00 70 999.4
20260831161006 63 49 1.7 3.5 0.00 0.00 0.00 70 999.4
20260831160511 63 17 0.9 2.6 0.00 0.00 0.00 72 999.4
20260831160043 62 46 0.9 3.5 0.00 0.00 0.00 72 999.4
20260831155548 62 51 1.7 4.3 0.00 0.00 0.00 72 999.4
20260831155057 62 47 1.7 4.3 0.00 0.00 0.00 72 999.5
20260831154524 61 74 2.6 4.3 0.00 0.00 0.00 73 999.5
20260831154032 61 51 1.7 3.5 0.00 0.00 0.00 74 999.5
20260831153536 60 25 1.7 3.5 0.00 0.00 0.00 75 999.6
20260831153050 60 53 1.7 3.5 0.00 0.00 0.00 77 999.6
20260831152546 59 34 0.9 2.6 0.00 0.00 0.00 79 999.7
20260831152053 58 28 0.0 3.5 0.00 0.00 0.00 80 999.7
20260831151502 57 20 1.7 3.5 0.00 0.00 0.00 81 999.8
20260831151003 57 49 0.9 2.6 0.00 0.00 0.00 83 999.7
20260831150508 56 323 0.9 2.6 0.00 0.00 0.00 84 999.7
20260831150044 56 43 0.9 2.6 0.00 0.00 0.00 84 999.7
20260831145551 55 212 0.0 2.6 0.00 0.00 0.00 85 999.8
20260831145051 55 213 0.0 0.0 0.00 0.00 0.00 85 999.7
20260831144530 54 213 0.0 0.0 0.00 0.00 0.00 85 999.7
20260831144035 54 213 0.0 0.0 0.00 0.00 0.00 84 999.8
20260831143536 54 213 0.0 0.0 0.00 0.00 0.00 84 999.7
20260831143056 54 213 0.0 0.0 0.00 0.00 0.00 84 999.7
20260831142558 54 213 0.0 0.9 0.00 0.00 0.00 84 999.7
20260831142103 54 213 0.0 1.7 0.00 0.00 0.00 83 999.6
20260831141537 54 213 0.9 1.7 0.00 0.00 0.00 83 999.6
20260831141043 54 213 0.9 1.7 0.00 0.00 0.00 83 999.7
20260831140552 54 213 0.9 1.7 0.00 0.00 0.00 83 999.8
20260831140019 54 213 0.9 1.7 0.00 0.00 0.00 83 999.7
20260831135526 54 213 0.9 1.7 0.00 0.00 0.00 83 999.7
20260831135032 54 213 0.9 1.7 0.00 0.00 0.00 83 999.7
20260831134558 54 213 1.7 1.7 0.00 0.00 0.00 83 999.6
20260831134005 54 213 0.9 1.7 0.00 0.00 0.00 83 999.6
20260831133511 54 213 0.9 1.7 0.00 0.00 0.00 83 999.8
20260831133048 54 213 0.0 1.7 0.00 0.00 0.00 82 999.8
20260831132554 54 213 0.9 1.7 0.00 0.00 0.00 82 999.7
20260831132100 54 213 0.9 2.6 0.00 0.00 0.00 82 999.9
20260831131538 54 213 0.9 2.6 0.00 0.00 0.00 82 999.9
20260831131039 54 213 0.9 1.7 0.00 0.00 0.00 82 999.9
20260831130550 54 213 0.9 1.7 0.00 0.00 0.00 82 999.8
20260831130024 55 213 0.9 1.7 0.00 0.00 0.00 82 999.9
20260831125511 55 213 0.9 2.6 0.00 0.00 0.00 82 999.9
20260831125021 55 213 1.7 2.6 0.00 0.00 0.00 82 1000.0
20260831124607 55 213 0.9 1.7 0.00 0.00 0.00 82 999.9
20260831124003 55 213 0.9 1.7 0.00 0.00 0.00 82 1000.0
20260831123505 55 213 0.9 1.7 0.00 0.00 0.00 82 1000.0
20260831123041 55 213 0.9 1.7 0.00 0.00 0.00 82 1000.0
20260831122550 55 213 0.9 2.6 0.00 0.00 0.00 82 1000.0
20260831122049 55 213 0.0 3.5 0.00 0.00 0.00 82 1000.0
20260831121518 55 296 0.0 0.0 0.00 0.00 0.00 82 1000.1
20260831121032 55 268 0.0 0.0 0.00 0.00 0.00 82 1000.1
20260831120540 55 268 0.0 0.0 0.00 0.00 0.00 82 1000.1
20260831120058 55 268 0.0 0.0 0.00 0.00 0.00 82 1000.2
20260831115502 55 268 0.0 0.0 0.00 0.00 0.00 82 1000.2
20260831115007 55 268 0.0 0.0 0.00 0.00 0.00 82 1000.3
20260831114518 55 268 0.0 0.0 0.00 0.00 0.00 81 1000.4
20260831114032 56 268 0.0 0.0 0.00 0.00 0.00 82 1000.3
20260831113537 56 268 0.0 0.0 0.00 0.00 0.00 82 1000.4
20260831113009 56 268 0.0 0.0 0.00 0.00 0.00 82 1000.4
20260831112523 56 268 0.0 0.0 0.00 0.00 0.00 82 1000.4
20260831112029 56 268 0.0 0.9 0.00 0.00 0.00 82 1000.4
20260831111616 56 268 0.0 1.7 0.00 0.00 0.00 82 1000.5
20260831111101 56 268 0.0 1.7 0.00 0.00 0.00 82 1000.4
20260831110505 56 268 0.9 2.6 0.00 0.00 0.00 81 1000.5
20260831110044 56 268 0.9 2.6 0.00 0.00 0.00 81 1000.6
20260831105549 56 268 0.9 2.6 0.00 0.00 0.00 81 1000.5
20260831105100 56 268 0.9 1.7 0.00 0.00 0.00 81 1000.6
20260831104547 56 268 0.0 2.6 0.00 0.00 0.00 81 1000.6
20260831104038 56 268 0.9 2.6 0.00 0.00 0.00 81 1000.5
20260831103548 56 271 0.9 2.6 0.00 0.00 0.00 81 1000.5
20260831103012 56 271 0.9 2.6 0.00 0.00 0.00 81 1000.6
20260831102529 56 271 0.0 2.6 0.00 0.00 0.00 81 1000.6
20260831102027 56 270 0.9 2.6 0.00 0.00 0.00 81 1000.6
20260831101559 56 271 0.9 2.6 0.00 0.00 0.00 81 1000.7
20260831101004 56 256 0.0 0.0 0.00 0.00 0.00 81 1000.8
20260831100503 56 256 0.0 0.0 0.00 0.00 0.00 81 1000.9
20260831100043 56 256 0.0 0.0 0.00 0.00 0.00 81 1000.9
20260831095547 57 256 0.0 0.0 0.00 0.00 0.00 81 1001.0
20260831095059 57 256 0.0 0.0 0.00 0.00 0.00 81 1001.2
20260831094524 57 256 0.0 1.7 0.00 0.00 0.00 81 1001.2
20260831094031 57 256 0.9 2.6 0.00 0.00 0.00 81 1001.2
20260831093537 57 256 0.9 2.6 0.00 0.00 0.00 80 1001.3
20260831093057 57 254 0.9 1.7 0.00 0.00 0.00 81 1001.2
20260831092501 57 254 0.9 1.7 0.00 0.00 0.00 80 1001.3
20260831092012 57 254 0.0 1.7 0.00 0.00 0.00 80 1001.3
20260831091542 57 254 0.0 2.6 0.00 0.00 0.00 80 1001.3
20260831091045 57 254 0.9 2.6 0.00 0.00 0.00 80 1001.4
20260831090553 57 269 0.9 2.6 0.00 0.00 0.00 80 1001.4
20260831090027 57 269 0.9 2.6 0.00 0.00 0.00 80 1001.5
20260831085537 57 273 0.9 2.6 0.00 0.00 0.00 80 1001.5
20260831085043 57 273 0.9 2.6 0.00 0.00 0.00 80 1001.5
20260831084521 57 270 0.9 2.6 0.00 0.00 0.00 80 1001.6
20260831084026 57 269 0.9 2.6 0.00 0.00 0.00 80 1001.7
20260831083533 58 270 0.9 2.6 0.00 0.00 0.00 80 1001.7
20260831083106 58 270 0.9 2.6 0.00 0.00 0.00 80 1001.7
20260831082514 58 243 0.9 2.6 0.00 0.00 0.00 79 1001.7
20260831082019 58 242 0.9 2.6 0.00 0.00 0.00 79 1001.8
20260831081549 58 242 0.9 2.6 0.00 0.00 0.00 79 1001.8
20260831081055 58 244 0.9 2.6 0.00 0.00 0.00 79 1002.0
20260831080557 58 244 0.9 2.6 0.00 0.00 0.00 78 1002.0
20260831080012 58 242 0.9 2.6 0.00 0.00 0.00 78 1002.2
20260831075525 58 242 0.9 2.6 0.00 0.00 0.00 78 1002.2
20260831075025 59 242 0.9 2.6 0.00 0.00 0.00 78 1002.2
20260831074559 59 231 0.9 2.6 0.00 0.00 0.00 77 1002.3
20260831074005 59 231 0.9 2.6 0.00 0.00 0.00 77 1002.2
20260831073513 59 231 0.9 2.6 0.00 0.00 0.00 77 1002.1
20260831073032 59 246 0.0 1.7 0.00 0.00 0.00 77 1002.2
20260831072535 59 341 0.0 1.7 0.00 0.00 0.00 76 1002.2
20260831072042 60 342 0.0 0.9 0.00 0.00 0.00 76 1002.3
20260831071553 60 259 0.0 0.0 0.00 0.00 0.00 75 1002.4
20260831071101 60 259 0.0 0.0 0.00 0.00 0.00 75 1002.5
20260831070507 60 259 0.0 0.0 0.00 0.00 0.00 75 1002.5
20260831070049 60 259 0.0 2.6 0.00 0.00 0.00 75 1002.5
20260831065538 60 259 0.9 2.6 0.00 0.00 0.00 75 1002.6
20260831065044 60 297 0.9 2.6 0.00 0.00 0.00 75 1002.6
20260831064558 60 304 0.0 1.7 0.00 0.00 0.00 75 1002.7
20260831064059 60 307 0.0 2.6 0.00 0.00 0.00 75 1002.8
20260831063517 60 273 0.0 2.6 0.00 0.00 0.00 74 1002.7
20260831063041 60 280 0.9 5.2 0.00 0.00 0.00 75 1002.8
20260831062542 60 296 1.7 4.3 0.00 0.00 0.00 74 1002.9
20260831062043 61 318 1.7 3.5 0.00 0.00 0.00 74 1002.9
20260831061519 61 297 0.0 5.2 0.00 0.00 0.00 74 1003.0
20260831061026 61 297 1.7 5.2 0.00 0.00 0.00 74 1003.0
20260831060530 61 274 0.9 3.5 0.00 0.00 0.00 74 1003.0
20260831060044 61 54 0.9 7.0 0.00 0.00 0.00 73 1003.0
20260831055549 61 350 1.7 7.0 0.00 0.00 0.00 73 1003.1
20260831055049 61 254 0.0 5.2 0.00 0.00 0.00 73 1003.1
20260831054522 61 269 2.6 7.8 0.00 0.00 0.00 73 1003.2
20260831054026 61 277 0.0 7.8 0.00 0.00 0.00 73 1003.2
20260831053533 61 252 0.9 6.1 0.00 0.00 0.00 73 1003.3
20260831053102 61 5 0.0 6.1 0.00 0.00 0.00 72 1003.3
20260831052502 61 355 1.7 4.3 0.00 0.00 0.00 72 1003.4
20260831052017 61 281 0.9 4.3 0.00 0.00 0.00 72 1003.5
20260831051544 61 320 0.9 4.3 0.00 0.00 0.00 72 1003.6
20260831051053 61 311 0.9 4.3 0.00 0.00 0.00 71 1003.6
20260831050501 62 325 0.9 4.3 0.00 0.00 0.00 71 1003.6
20260831050055 62 305 0.9 4.3 0.00 0.00 0.00 71 1003.6
20260831045541 62 247 0.9 2.6 0.00 0.00 0.00 70 1003.6
20260831045049 62 246 0.9 4.3 0.00 0.00 0.00 70 1003.7
20260831044503 62 307 1.7 4.3 0.00 0.00 0.00 70 1003.7
20260831044010 62 301 1.7 3.5 0.00 0.00 0.00 69 1003.7
20260831043523 63 14 0.0 1.7 0.00 0.00 0.00 69 1003.7
20260831043052 63 284 0.0 1.7 0.00 0.00 0.00 69 1003.8
20260831042554 63 281 0.0 1.7 0.00 0.00 0.00 68 1003.8
20260831042043 63 281 0.9 3.5 0.00 0.00 0.00 67 1003.7
20260831041614 64 281 0.0 3.5 0.00 0.00 0.00 67 1003.7
20260831041010 64 10 0.0 2.6 0.00 0.00 0.00 66 1003.8
20260831040515 64 10 0.9 4.3 0.00 0.00 0.00 66 1003.7
20260831040051 64 344 0.9 4.3 0.00 0.00 0.00 66 1003.8
20260831035558 64 355 0.9 4.3 0.00 0.00 0.00 66 1003.7
20260831035005 65 338 0.9 4.3 0.00 0.00 0.00 65 1003.8
20260831034541 65 51 1.7 4.3 0.00 0.00 0.00 65 1003.8
20260831034047 65 19 0.0 5.2 0.00 0.00 0.00 65 1003.8
20260831033553 65 5 1.7 5.2 0.00 0.00 0.00 64 1003.7
20260831033031 65 12 1.7 6.1 0.00 0.00 0.00 64 1003.7
20260831032542 65 55 1.7 6.1 0.00 0.00 0.00 63 1003.7
20260831032047 66 122 0.9 5.2 0.00 0.00 0.00 63 1003.8
20260831031526 66 5 2.6 8.7 0.00 0.00 0.00 63 1003.7
20260831031030 66 313 3.5 8.7 0.00 0.00 0.00 62 1003.8
20260831030540 66 34 3.5 7.8 0.00 0.00 0.00 61 1003.7
20260831030003 66 227 2.6 7.0 0.00 0.00 0.00 61 1003.7
20260831025517 67 18 1.7 7.0 0.00 0.00 0.00 60 1003.7
20260831025023 67 21 1.7 5.2 0.00 0.00 0.00 59 1003.7
20260831024611 67 360 0.9 9.6 0.00 0.00 0.00 59 1003.8
20260831024100 67 42 1.7 9.6 0.00 0.00 0.00 59 1003.8
20260831023507 68 342 1.7 7.0 0.00 0.00 0.00 58 1003.8
20260831023031 68 25 2.6 7.0 0.00 0.00 0.00 58 1003.8
20260831022537 68 28 2.6 7.0 0.00 0.00 0.00 57 1003.8
20260831022045 68 61 2.6 11.3 0.00 0.00 0.00 58 1003.8
20260831021519 68 5 3.5 11.3 0.00 0.00 0.00 58 1003.8
20260831021029 68 346 4.3 9.6 0.00 0.00 0.00 58 1003.8
20260831020539 69 9 3.5 9.6 0.00 0.00 0.00 57 1003.8
20260831020003 69 329 4.3 10.4 0.00 0.00 0.00 58 1003.7
20260831015517 69 360 4.3 10.4 0.00 0.00 0.00 58 1003.8
20260831015022 69 328 5.2 10.4 0.00 0.00 0.00 58 1003.7
20260831014603 69 16 2.6 8.7 0.00 0.00 0.00 57 1003.7
20260831014002 69 20 2.6 8.7 0.00 0.00 0.00 58 1003.8
20260831013511 70 55 4.3 8.7 0.00 0.00 0.00 58 1003.8
20260831013047 70 351 4.3 8.7 0.00 0.00 0.00 56 1003.8
20260831012555 70 13 3.5 8.7 0.00 0.00 0.00 56 1003.8
20260831012103 71 360 3.5 8.7 0.00 0.00 0.00 55 1003.9
20260831011538 71 351 2.6 7.8 0.00 0.00 0.00 55 1003.9
20260831011043 71 77 3.5 8.7 0.00 0.00 0.00 55 1004.1
20260831010551 71 45 4.3 8.7 0.00 0.00 0.00 55 1004.0
20260831010035 71 5 2.6 7.8 0.00 0.00 0.00 55 1004.1
20260831005531 71 34 2.6 10.4 0.00 0.00 0.00 54 1004.2
20260831005041 72 26 3.5 10.4 0.00 0.00 0.00 54 1004.2
20260831004509 72 51 2.6 7.8 0.00 0.00 0.00 54 1004.2
20260831004023 72 45 1.7 8.7 0.00 0.00 0.00 53 1004.2
20260831003531 72 350 4.3 8.7 0.00 0.00 0.00 53 1004.2
20260831003106 72 360 3.5 7.8 0.00 0.00 0.00 53 1004.3
20260831002504 72 111 2.6 7.8 0.00 0.00 0.00 53 1004.4
20260831002018 72 39 0.9 8.7 0.00 0.00 0.00 54 1004.4
20260831001540 72 13 3.5 8.7 0.00 0.00 0.00 52 1004.4
20260831001041 73 78 1.7 10.4 0.00 0.00 0.00 52 1004.4
20260831000548 72 28 4.3 10.4 0.00 0.00 0.00 53 1004.6
20260831000025 73 159 1.7 8.7 0.00 0.00 0.00 52 1004.5
20260830235537 73 355 4.3 8.7 0.00 0.00 0.00 52 1004.6
20260830235053 72 86 3.5 8.7 0.00 0.00 0.00 52 1004.5
20260830234506 72 309 2.6 6.1 0.00 0.00 0.00 54 1004.6
20260830234018 73 32 0.9 7.8 0.00 0.00 0.00 52 1004.6
20260830233527 73 55 3.5 7.8 0.00 0.00 0.00 53 1004.8
20260830233058 73 59 3.5 7.0 0.00 0.00 0.00 53 1004.8
20260830232505 72 341 1.7 8.7 0.00 0.00 0.00 53 1004.9
20260830232023 73 87 2.6 8.7 0.00 0.00 0.00 51 1004.9
20260830231538 73 47 0.9 6.1 0.00 0.00 0.00 52 1005.0
20260830231048 73 25 1.7 8.7 0.00 0.00 0.00 51 1005.0
20260830230556 73 63 1.7 7.8 0.00 0.00 0.00 53 1005.1
20260830230037 72 347 3.5 9.6 0.00 0.00 0.00 51 1005.1
20260830225534 73 298 2.6 9.6 0.00 0.00 0.00 50 1005.3
20260830225046 72 29 0.9 7.0 0.00 0.00 0.00 50 1005.3
20260830224529 73 85 1.7 4.3 0.00 0.00 0.00 51 1005.6
20260830224025 72 274 1.7 4.3 0.00 0.00 0.00 52 1005.6
20260830223531 73 269 0.9 9.6 0.00 0.00 0.00 51 1005.7
20260830223059 73 261 4.3 9.6 0.00 0.00 0.00 52 1005.9
20260830222504 73 99 2.6 6.1 0.00 0.00 0.00 50 1005.9
20260830222016 73 71 1.7 6.1 0.00 0.00 0.00 50 1006.0
20260830221534 72 44 1.7 7.0 0.00 0.00 0.00 52 1006.0
20260830221040 72 280 2.6 7.8 0.00 0.00 0.00 52 1006.1
20260830220548 72 5 1.7 5.2 0.00 0.00 0.00 50 1006.2
20260830220025 72 273 0.9 7.0 0.00 0.00 0.00 52 1006.2
20260830215527 72 313 3.5 7.0 0.00 0.00 0.00 51 1006.3
20260830215038 72 68 2.6 6.1 0.00 0.00 0.00 52 1006.4
20260830214505 72 138 1.7 6.1 0.00 0.00 0.00 52 1006.3
20260830214023 72 70 2.6 5.2 0.00 0.00 0.00 50 1006.4
20260830213518 72 218 1.7 7.0 0.00 0.00 0.00 49 1006.5
20260830213102 73 74 3.5 7.0 0.00 0.00 0.00 49 1006.7
20260830212600 72 70 1.7 7.0 0.00 0.00 0.00 52 1006.7
20260830212107 72 355 2.6 6.1 0.00 0.00 0.00 51 1006.8
20260830211538 72 62 0.9 6.1 0.00 0.00 0.00 51 1006.9
20260830211047 71 279 1.7 3.5 0.00 0.00 0.00 52 1006.9
20260830210551 70 97 0.9 6.1 0.00 0.00 0.00 50 1006.9
20260830210024 71 89 2.6 6.1 0.00 0.00 0.00 50 1007.1
20260830205532 72 51 2.6 6.1 0.00 0.00 0.00 52 1007.0
20260830205040 71 19 3.5 7.0 0.00 0.00 0.00 53 1007.1
20260830204506 70 355 1.7 5.2 0.00 0.00 0.00 53 1007.1
20260830204010 70 109 2.6 5.2 0.00 0.00 0.00 54 1007.1
20260830203516 68 311 0.9 8.7 0.00 0.00 0.00 54 1007.3
20260830203050 70 9 2.6 8.7 0.00 0.00 0.00 52 1007.3
20260830202558 70 42 0.9 7.0 0.00 0.00 0.00 54 1007.3
20260830202004 70 317 2.6 7.8 0.00 0.00 0.00 52 1007.3
20260830201605 70 11 4.3 7.8 0.00 0.00 0.00 54 1007.5
20260830201048 70 26 2.6 7.8 0.00 0.00 0.00 53 1007.5